Starlink 30313

operational
NORAD ID: 57676 Int'l Des: 2023-124 Owner: SPXS Country: US Constellation: starlink
LEOCIRCULAR

About Starlink 30313

Description loading...

Live Position

Loading 3D Globe...

Upcoming Passes

Altitude History

Altitude vs Time

uPlot chart will show altitude changes over time

Two-Line Element Set

1 57676U 23124P 25351.89971990 -.00001598 00000-0 -41854-4 0 9992
2 57676 53.1600 226.8930 0001361 93.5143 266.6013 15.30189882131042
Epoch: Dec 17, 2025 • Age: 10 hours

Current Status

Altitude 480.1 km
Velocity 7.63 km/s
Sub-Earth Point 49.48°N, 88.89°E
Launch Date Aug 22, 2023
Age 2.3 years
Type internet

Technical Details

Classification Payload
Mass 730.00 kg
Dry Mass 700.00 kg
Total Mass 730.00 kg
Length 0.30 m
Diameter 4.10 m
Span 29.00 m
Shape Box + pan
Manufacturer SPXS
Bus Type Starlink V2M
Phase Status In Orbit
Owner/State SPXS/US

Large Constellations

Loading constellations...